MDT,Max TemperatureF,Mean TemperatureF,Min TemperatureF,Max Dew PointF,MeanDew PointF,Min DewpointF,Max Humidity, Mean Humidity, Min Humidity, Max Sea Level PressureIn, Mean Sea Level PressureIn, Min Sea Level PressureIn, Max VisibilityMiles, Mean VisibilityMiles, Min VisibilityMiles, Max Wind SpeedMPH, Mean Wind SpeedMPH, Max Gust SpeedMPH,PrecipitationIn, CloudCover, Events, WindDirDegrees
2013-5-1,49,38,26,21,17,11,75,49,23,30.63,30.53,30.33,10,10,10,11,6,14,T,3,Rain-Snow,24
2013-5-2,64,49,33,26,19,15,69,43,16,30.65,30.48,30.23,10,10,10,21,13,28,0.00,0,,227
2013-5-3,65,56,46,42,26,17,86,53,20,30.22,30.15,30.09,10,10,10,22,13,27,0.02,6,Rain,294
2013-5-4,58,50,42,43,39,33,86,65,43,30.28,30.23,30.19,10,10,10,24,7,27,T,6,Rain,8
2013-5-5,68,52,36,36,30,27,70,48,26,30.24,30.12,30.01,10,10,10,15,7,19,0.00,2,,49
2013-5-6,74,57,40,33,29,24,59,40,20,30.04,29.94,29.83,10,10,10,14,6,19,0.00,0,,85
2013-5-7,79,62,45,35,31,27,58,37,16,29.90,29.82,29.77,10,10,10,21,9,28,0.00,1,,330
2013-5-8,71,58,44,38,36,34,65,47,29,30.12,30.06,29.92,10,10,10,18,9,22,0.00,1,,37
2013-5-9,75,59,43,45,39,35,76,52,27,30.15,30.09,30.03,10,10,10,22,7,27,0.06,2,Rain-Thunderstorm,3
2013-5-10,71,57,43,42,34,24,66,44,22,30.37,30.21,30.08,10,10,10,28,14,35,0.00,2,,47
2013-5-11,77,58,39,36,29,22,49,35,21,30.39,30.22,30.01,10,10,10,14,6,17,0.00,2,,245
2013-5-12,91,75,58,40,36,28,40,26,11,30.08,29.92,29.83,10,10,10,26,14,35,0.00,1,,262
2013-5-13,94,79,64,43,37,32,35,24,12,29.92,29.77,29.59,10,10,10,38,12,46,T,2,Rain-Thunderstorm,236
2013-5-14,81,68,54,45,35,27,66,42,18,29.89,29.81,29.67,10,10,10,22,8,28,0.00,2,,27
2013-5-15,75,60,45,42,28,18,35,28,20,30.00,29.89,29.78,10,10,10,16,8,22,0.01,3,Rain,40
2013-5-16,70,61,52,52,46,43,93,65,37,29.84,29.80,29.74,10,10,3,23,8,26,0.19,5,Rain-Thunderstorm,26
2013-5-17,61,56,51,54,51,48,100,84,67,29.87,29.84,29.81,10,10,4,13,5,14,0.17,7,Rain,347
2013-5-18,59,55,50,53,51,48,100,89,77,29.93,29.89,29.86,10,8,0,13,5,17,0.48,7,Fog-Rain,319
2013-5-19,53,52,50,50,49,46,93,91,89,30.04,29.95,29.89,10,9,2,29,16,36,0.89,8,Rain,326
2013-5-20,66,58,49,48,42,27,93,59,25,30.14,30.08,30.03,10,10,10,26,15,35,T,4,Rain,354
2013-5-21,67,55,43,43,38,31,83,56,28,30.09,30.00,29.91,10,10,10,24,11,29,0.00,1,,135
2013-5-22,68,56,43,45,43,41,96,71,45,29.96,29.91,29.84,10,10,10,30,17,39,T,6,,73
2013-5-23,71,62,52,53,46,42,93,69,44,29.92,29.78,29.67,10,10,7,30,16,36,0.18,6,Rain-Thunderstorm,68
2013-5-24,71,60,49,50,37,26,89,55,20,29.94,29.84,29.65,10,10,10,30,10,40,0.03,3,Rain,305
2013-5-25,74,60,46,41,38,34,71,49,27,29.88,29.84,29.78,10,10,10,21,7,26,T,2,,359
2013-5-26,75,62,48,57,48,40,83,65,46,29.94,29.84,29.76,10,10,4,28,9,42,0.18,3,Rain-Hail-Thunderstorm,17
2013-5-27,67,58,48,50,45,40,89,67,44,29.89,29.80,29.73,10,9,3,28,6,33,0.39,4,Rain-Thunderstorm,309
2013-5-28,70,59,47,49,46,44,86,63,40,29.75,29.68,29.62,10,10,10,17,7,20,0.04,5,Fog-Rain-Thunderstorm,2
2013-5-29,54,53,51,52,50,48,100,92,83,29.74,29.67,29.62,10,7,0,20,10,23,1.20,8,Fog-Rain-Thunderstorm,302
2013-5-30,54,51,48,48,46,44,93,85,77,29.82,29.71,29.61,10,10,10,32,19,41,0.32,8,Rain,308
2013-5-31,55,51,47,45,41,38,93,74,55,30.22,29.97,29.81,10,10,9,39,24,48,0.12,8,Rain,307